Torna al catalogo

DMSP 5D-2 F13 DEB

AttivoSSO
NORAD 40582·DEBRIS·🇺🇸 United States

Lanciato Mar 24, 1995 da Vandenberg Space Force Base

Loading…

Prossimi Passaggi (prossime 24 ore)

TLE

AggiornatoSource: Space-Track

Epoca: Sep 12, 2026, 12:36 UTC

1 40582U 95015ER  26255.52539337  .00003754  00000-0  14372-2 0  9994
2 40582  98.7110 162.7543 0067833 227.8131 131.7279 14.29944464586945

Traccia DMSP 5D-2 F13 DEB in tempo reale con AllMySat

Download on the App Store